Location: ??
(35.5138°N, 139.6953°E)
Time: 08:44:00
(UTC+00:00)

Cosmos 2082 Rocket - Pass Details

Date: 07 June 2020
Orbit: 832 x 855 km, 71.0° (Epoch: 05 July)

Event Time Altitude Azimuth Distance (km) Brightness Sun altitude
Rises 11:43:25 0° 320° (NW) 3,423 7.1 -18.2°
Reaches altitude 10° 11:46:33 10° 303° (WNW) 2,480 5.8 -18.6°
Maximum altitude 11:50:25 19° 260° (W) 1,912 4.4 -19.2°
Drops below altitude 10° 11:54:15 10° 217° (SW) 2,460 4.5 -19.7°
Enters shadow 11:56:03 - 206° (SSW) 2,969 4.8 -19.9°
